This demonstration page uses our WeatherBlox Daily Observations layout. Learn more.

Left ArrowRight Arrow

30.21309, -93.2044

Hourly Observations for February 17, 2022

Temp ( °F °C ) Dew Point ( °F °C ) Humidity (%) Winds ( mph kmh ) Pressure ( in mb ) Visibility ( mi km ) Precip ( " mm )
12:15 am 00:15 Cloudy 69 20.4 66 19.1 92 92 SSE 17 28 29.95 1014 7 11 0.00 0.00
12:35 am 00:35 Cloudy with Mist and Fog 69 20.5 66 19.1 92 92 SSE 18 30 29.95 1014 7 11 0.00 0.00
12:55 am 00:55 Cloudy 69 20.5 66 19.1 92 92 SSE 16 26 29.95 1014 7 11 0.00 0.00
1:15 am 01:15 Cloudy 69 20.5 66 19.1 92 92 SSE 18 30 29.94 1014 7 11 0.00 0.00
1:35 am 01:35 Cloudy 69 20.6 66 19.1 91 91 SSE 16 26 29.94 1014 7 11 0.00 0.00
1:55 am 01:55 Cloudy 69 20.5 66 19.1 92 92 SSE 15 24 29.93 1014 7 11 0.00 0.00
2:15 am 02:15 Cloudy 69 20.4 66 19.1 92 92 SSE 17 28 29.91 1013 7 11 0.00 0.00
2:35 am 02:35 Cloudy 69 20.4 66 19.1 92 92 SSE 17 28 29.91 1013 7 11 0.00 0.00
2:55 am 02:55 Cloudy 69 20.5 66 19.1 92 92 SSE 18 30 29.89 1012 7 11 0.00 0.00
3:15 am 03:15 Cloudy 69 20.6 67 19.2 92 92 SSE 16 26 29.89 1012 7 11 0.00 0.00
3:35 am 03:35 Cloudy 69 20.7 67 19.2 91 91 SSE 16 26 29.89 1012 7 11 0.00 0.00
3:55 am 03:55 Cloudy 69 20.5 67 19.2 92 92 SSE 13 20 29.89 1012 7 11 0.00 0.00
4:15 am 04:15 Cloudy 69 20.6 67 19.3 92 92 SSE 14 22 29.88 1012 7 11 0.00 0.00
4:35 am 04:35 Cloudy 69 20.7 67 19.4 92 92 SSE 16 26 29.88 1012 7 11 0.00 0.00
4:55 am 04:55 Cloudy 69 20.8 67 19.4 92 92 SSE 20 31 29.88 1012 10 16 0.00 0.00
5:15 am 05:15 Cloudy 70 20.9 67 19.4 91 91 SSE 18 30 29.88 1012 10 16 0.00 0.00
5:35 am 05:35 Cloudy 70 21.1 67 19.6 91 91 SSE 22 35 29.88 1012 10 16 0.00 0.00
6:00 am 06:00 Cloudy 70 21 66 19 88 88 SSE 20 31 29.89 1012 10 16 0.00 0.00
6:55 am 06:55 Cloudy 70 21 66 19 88 88 SSE 20 31 29.89 1012 10 16 0.00 0.00
7:55 am 07:55 Cloudy with Light Rain 70 21 68 20 94 94 S 20 31 29.91 1013 2 3 0.00 0.00
8:55 am 08:55 Cloudy with Light Rain 70 21 68 20 94 94 S 20 31 29.92 1013 4 6 0.00 0.00
9:55 am 09:55 Cloudy with Light Rain 70 21 68 20 94 94 S 17 28 29.91 1013 5 8 0.00 0.00
10:47 am 10:47 Cloudy with Light Rain 72 22 70 21 94 94 S 17 28 29.92 1013 5 8 0.00 0.00
11:50 am 11:50 Cloudy with Light Rain 73 23 70 21 89 89 S 22 35 29.91 1013 5 8 0.00 0.00
12:45 pm 12:45 Cloudy with Light Rain 73 23 70 21 89 89 SSW 23 37 29.89 1012 7 11 0.00 0.00
1:45 pm 13:45 Cloudy with Light Rain 72 22 70 21 94 94 SSW 23 37 29.89 1012 7 11 0.00 0.00
2:50 pm 14:50 Mostly Cloudy 73 23 66 19 78 78 SW 14 22 29.86 1011 10 16 0.00 0.00
3:50 pm 15:50 Partly Cloudy 57 14 66 19 100 100 SW 14 22 29.86 1011 10 16 0.00 0.00
4:50 pm 16:50 Mostly Cloudy 73 23 66 19 78 78 SSW 12 19 29.88 1012 10 16 0.00 0.00
5:50 pm 17:50 Mostly Cloudy 72 22 59 15 65 65 NNW 13 20 29.92 1013 10 16 0.00 0.00
6:45 pm 18:45 Mostly Clear 66 19 55 13 68 68 NNW 29 46 29.97 1015 10 16 0.00 0.00
7:45 pm 19:45 Mostly Clear 59 15 48 9 68 68 NNW 23 37 30.04 1017 10 16 0.00 0.00
8:45 pm 20:45 Mostly Clear 55 13 46 8 72 72 N 17 28 30.08 1019 10 16 0.00 0.00
9:45 pm 21:45 Mostly Clear 54 12 43 6 67 67 N 17 28 30.11 1020 10 16 0.00 0.00
10:15 pm 22:15 Clear 50 10.1 41 5.2 72 72 N 16 26 30.13 1020 10 16 0.00 0.00
10:35 pm 22:35 Clear 49 9.2 41 4.9 75 75 N 16 26 30.14 1021 10 16 0.00 0.00
10:55 pm 22:55 Partly Cloudy 48 9 40 4.7 75 75 N 16 26 30.15 1021 10 16 0.00 0.00
11:15 pm 23:15 Cloudy 48 8.7 40 4.5 75 75 N 14 22 30.15 1021 10 16 0.00 0.00
11:35 pm 23:35 Mostly Cloudy 47 8.3 40 4.2 76 76 N 17 28 30.16 1021 10 16 0.00 0.00
11:55 pm 23:55 Partly Cloudy 46 7.7 38 3.4 74 74 N 21 33 30.16 1021 10 16 0.00 0.00

Powered by AerisWeather